Wind_Speed
8 8 8 8 9 9 9 9 9 10 11 11 10 10 10 9 11 13 15 17 17 17 18 17 16 15 14 13 13 13 13 14 14 15 16 16 16 17 18 20 21 22 23 25
7 8 8 8 9 8 8 9 9 10 11 11 11 10 10 10 10 10 11 12 11 12 13 13 12 10 10 10 11 12 13 14 15 16 17 18 19 20 21 22 23 24 25 26
6 6 8 8 9 9 8 9 9 10 11 11 11 10 9 8 7 6 6 7 7 7 7 6 6 7 7 9 10 12 13 14 16 17 18 19 21 22 23 24 25 26 27 27
7 7 8 8 9 9 9 10 10 10 10 11 10 9 8 7 5 4 4 5 4 4 4 5 6 7 8 9 11 12 13 15 16 18 19 21 22 23 25 26 27 27 28 28
8 9 9 9 9 9 9 9 10 10 9 9 8 7 6 5 4 3 3 4 4 4 4 5 6 7 8 10 12 13 14 16 18 19 21 23 24 25 26 27 27 28 28 29
9 10 10 10 10 10 10 10 9 9 8 7 8 7 7 6 4 3 3 2 3 3 4 6 7 8 10 11 13 15 17 19 20 22 23 24 25 26 27 27 27 28 29 30
10 11 11 10 10 9 9 9 8 8 8 8 8 7 7 6 5 4 4 3 3 4 6 7 9 10 12 14 15 17 19 21 22 23 24 25 25 26 26 27 28 28 29 30
9 10 11 10 9 9 9 7 5 5 6 8 8 7 7 6 6 5 5 5 5 7 8 10 11 13 14 16 17 19 21 22 23 24 24 25 25 26 26 27 28 29 29 30
10 11 12 10 9 9 8 7 6 5 6 6 8 8 7 6 6 6 6 7 8 9 10 12 13 14 16 17 19 20 21 22 23 24 24 24 25 26 26 27 28 28 29 29
11 11 11 10 9 8 7 6 5 3 3 4 8 8 8 8 7 7 8 9 10 11 12 13 14 16 17 18 20 21 21 22 23 24 24 24 24 25 26 27 28 29 29 30
10 9 10 9 8 8 6 5 4 4 3 2 6 8 8 8 8 9 9 10 11 12 13 14 15 17 18 19 20 21 22 22 23 23 23 24 25 26 27 28 29 30 31 31
11 10 9 10 9 8 7 6 6 5 6 5 5 10 9 9 9 10 10 11 12 13 14 15 16 17 18 19 21 22 22 22 22 23 24 25 27 28 29 30 31 32 33 33
12 10 8 9 10 9 9 9 8 8 8 7 6 10 11 10 10 10 11 12 12 13 14 15 16 18 19 20 21 22 22 22 22 23 25 27 28 30 31 33 33 34 35 35
12 11 10 10 11 12 11 11 11 10 9 10 9 11 12 11 11 11 12 12 13 13 14 15 17 18 19 21 21 22 22 23 24 26 28 29 31 33 34 35 36 36 37 37
13 12 12 12 12 12 12 12 12 12 12 11 12 12 13 12 12 12 12 13 13 14 15 16 18 19 20 21 22 22 23 24 26 28 30 32 34 35 36 37 38 38 38 38
14 13 13 12 12 12 12 12 13 13 12 12 12 12 12 13 13 13 13 13 14 15 16 17 18 20 21 22 23 24 25 26 28 30 32 34 36 37 38 39 40 40 40 40
14 14 13 11 12 12 11 11 12 12 12 12 12 13 13 13 13 13 13 14 14 15 16 18 19 21 22 23 24 25 26 28 30 32 34 36 38 39 40 41 41 42 42 41
14 14 13 11 12 11 11 12 12 11 12 12 13 13 13 14 14 14 14 15 15 16 17 19 20 22 23 24 25 26 28 29 31 34 36 38 40 41 41 42 43 43 42 41
13 13 12 11 11 11 13 12 12 12 12 13 13 14 15 15 15 15 15 15 16 17 19 20 22 23 24 25 26 27 29 31 33 36 38 40 41 42 42 43 43 43 42 41
14 14 13 12 12 11 13 14 13 13 14 15 15 16 16 16 16 17 17 17 18 19 20 22 23 24 25 26 27 29 31 33 35 37 39 41 42 43 44 44 44 43 42 41
15 15 14 14 14 13 17 15 14 15 17 17 17 18 17 17 17 18 19 19 20 21 22 23 24 26 27 28 29 31 33 34 37 39 41 43 44 45 45 45 44 43 42 40
16 17 17 16 16 17 18 17 18 19 20 20 19 19 19 19 19 20 20 21 22 23 24 25 26 27 28 29 31 32 34 36 38 41 43 44 45 45 45 44 44 43 41 39
18 19 20 19 20 20 20 20 21 21 21 21 22 21 21 21 21 22 22 22 23 25 26 27 28 29 30 31 32 34 36 38 41 43 45 46 47 46 45 45 44 42 40 39
22 21 22 21 22 22 22 22 23 23 23 23 23 24 24 24 24 24 25 25 25 27 28 29 31 32 33 33 35 36 38 40 43 45 46 47 47 47 45 44 43 41 40 38
24 23 23 23 23 23 24 24 24 24 24 25 25 25 26 27 27 27 27 27 28 29 30 32 33 34 34 35 37 38 40 42 44 46 47 48 48 47 45 44 42 41 39 38
25 25 25 25 25 24 25 26 26 26 26 27 27 27 28 29 29 29 30 30 31 32 33 34 36 36 37 38 40 41 41 43 45 48 48 49 48 46 44 43 41 40 39 37
Wind_Direction
345 348 347 342 340 340 339 336 329 324 328 324 313 307 303 290 273 257 251 254 258 259 260 262 266 269 275 279 285 293 299 301 302 305 305 305 305 304 301 297 293 289 286 284
340 339 336 335 336 336 338 341 335 329 335 333 326 313 305 303 292 276 258 256 257 260 259 265 268 274 283 290 293 297 300 302 303 304 306 307 307 305 302 298 294 291 288 286
320 317 321 324 326 326 327 328 327 331 337 339 333 327 317 312 301 282 260 254 263 259 258 275 285 289 296 301 302 305 306 306 307 308 308 307 305 302 300 298 297 295 292 290
301 305 312 318 320 319 317 320 323 329 338 338 340 334 327 321 318 295 270 266 268 276 281 292 298 304 309 312 311 311 310 309 309 308 307 305 303 302 301 300 299 297 295 293
291 295 301 306 308 310 314 317 323 329 336 342 348 351 337 332 331 319 296 284 279 290 300 312 312 316 314 313 312 311 311 311 310 309 308 307 306 304 303 301 300 299 297 295
287 289 292 294 300 302 310 315 321 330 342 338 342 352 347 346 343 337 332 328 323 317 321 321 320 318 315 314 313 313 313 313 313 312 310 308 307 306 305 304 303 301 300 298
293 294 293 290 296 302 310 320 335 337 335 315 323 335 338 349 357 3 5 355 342 331 325 325 323 320 318 317 316 316 315 314 313 312 311 310 310 309 308 307 306 304 302 300
285 290 292 290 291 297 304 311 306 306 309 309 319 329 333 344 354 357 357 353 342 332 326 323 321 319 318 316 315 315 316 315 315 314 313 313 313 312 310 309 308 306 304 302
277 279 286 288 287 290 295 295 293 308 318 323 316 320 326 327 332 335 337 334 330 326 322 319 316 314 314 314 315 315 316 317 317 317 316 315 315 314 313 312 310 309 306 304
273 278 284 285 285 282 283 286 294 304 310 327 322 323 323 317 319 322 324 324 323 321 318 316 315 314 315 315 316 317 318 319 319 318 317 317 317 316 314 313 312 311 308 306
273 275 282 283 279 271 273 278 285 291 283 299 307 305 308 311 313 315 316 318 318 316 315 314 314 315 315 317 318 318 319 319 320 321 321 320 320 319 318 316 315 313 311 308
270 271 272 274 272 266 265 274 282 288 288 291 301 296 300 306 308 309 311 313 314 314 313 314 314 315 316 317 319 320 321 322 323 324 324 324 324 323 322 320 318 316 314 311
269 267 275 286 286 274 270 271 275 279 284 288 293 288 295 302 307 307 307 308 309 311 311 312 314 316 317 319 321 323 323 324 325 326 326 326 325 325 324 323 321 319 316 313
267 264 255 248 255 267 271 270 271 274 275 277 279 280 287 295 303 304 304 306 308 311 311 313 315 317 320 323 324 325 326 327 327 328 327 327 326 325 325 324 323 321 318 315
268 265 263 259 261 263 263 266 270 271 269 268 272 278 282 291 299 302 302 303 306 309 311 314 317 319 322 324 326 327 328 329 329 329 328 327 327 326 325 324 323 321 319 316
266 263 262 263 264 264 265 266 267 267 268 270 275 278 284 291 295 297 299 301 305 308 312 315 318 321 323 325 328 329 329 329 329 329 329 328 328 327 325 324 323 322 320 318
266 264 261 261 264 268 270 265 266 266 265 269 275 281 287 291 293 296 298 301 304 308 312 315 318 321 324 325 327 328 328 328 329 329 330 330 329 328 326 325 324 323 321 319
261 259 257 255 260 267 262 263 265 267 268 272 278 284 288 291 295 295 296 300 304 308 311 314 317 320 323 324 325 325 326 327 328 328 329 329 329 328 328 326 325 323 322 320
254 253 253 254 261 267 265 265 265 267 270 274 280 285 289 291 294 295 296 299 302 306 310 313 317 319 321 322 323 324 326 327 327 328 329 329 329 329 328 327 325 324 323 321
251 249 249 252 254 257 260 264 264 267 273 277 282 284 287 290 293 294 296 298 302 306 310 312 315 317 319 320 322 323 325 326 327 328 328 329 329 329 329 328 326 325 324 322
252 250 251 253 255 257 259 263 266 269 269 276 281 284 286 287 290 293 295 298 302 306 309 312 314 316 318 319 321 323 325 326 327 327 328 328 328 328 329 328 327 326 325 323
253 252 252 252 255 258 259 263 266 269 272 277 280 283 285 288 290 292 295 298 302 305 308 310 312 315 317 319 320 322 324 326 326 327 327 328 328 328 329 328 327 327 325 324
252 250 251 252 254 258 262 265 269 272 275 277 280 283 286 289 291 294 296 299 303 306 308 310 312 313 315 317 319 320 322 324 325 327 327 328 328 328 328 328 328 327 326 325
257 254 255 257 258 261 264 266 269 273 277 280 282 285 289 292 293 295 297 300 302 306 307 308 310 312 313 315 317 319 320 322 324 326 327 327 327 328 328 328 328 328 327 326
258 259 258 260 261 264 267 270 273 276 279 281 283 286 289 291 293 295 297 299 300 303 305 306 308 309 311 313 316 318 320 322 324 325 326 326 327 327 328 328 329 328 328 327
259 259 259 260 263 265 269 273 276 277 279 280 282 285 288 290 292 294 296 298 299 300 303 305 307 308 309 311 314 315 318 320 322 324 325 325 326 326 327 328 328 328 328 327
Height
5887 5887 5886 5885 5883 5882 5880 5879 5877 5875 5873 5871 5869 5868 5866 5865 5864 5864 5865 5865 5866 5866 5867 5867 5868 5868 5867 5867 5866 5865 5864 5863 5863 5862 5860 5859 5857 5855 5854 5852 5850 5849 5848 5847
5887 5886 5885 5883 5882 5881 5879 5878 5877 5874 5872 5870 5868 5866 5865 5863 5862 5861 5861 5862 5862 5862 5863 5864 5864 5864 5864 5864 5864 5863 5862 5861 5860 5858 5856 5854 5852 5850 5849 5847 5845 5844 5842 5840
5886 5886 5883 5882 5881 5880 5878 5877 5875 5874 5871 5869 5867 5865 5864 5862 5860 5860 5860 5860 5861 5861 5862 5862 5862 5862 5862 5862 5861 5860 5858 5857 5856 5854 5852 5850 5848 5846 5844 5842 5839 5837 5835 5833
5884 5883 5882 5881 5880 5878 5877 5876 5874 5872 5871 5869 5867 5866 5863 5861 5860 5859 5859 5859 5860 5860 5860 5861 5860 5860 5860 5859 5858 5857 5855 5854 5852 5850 5848 5846 5843 5841 5838 5835 5833 5830 5827 5825
5883 5882 5880 5879 5878 5877 5876 5874 5872 5871 5870 5869 5867 5866 5864 5861 5860 5859 5858 5858 5858 5859 5859 5859 5859 5858 5858 5857 5856 5854 5852 5851 5848 5846 5843 5841 5838 5835 5832 5829 5826 5823 5820 5817
5880 5879 5878 5877 5876 5875 5873 5873 5871 5870 5869 5869 5867 5866 5864 5861 5860 5858 5858 5857 5858 5858 5858 5858 5857 5857 5856 5854 5853 5851 5849 5847 5844 5841 5838 5835 5832 5829 5825 5822 5819 5816 5812 5809
5879 5877 5876 5875 5874 5873 5872 5872 5873 5872 5871 5869 5866 5865 5864 5861 5859 5858 5858 5858 5858 5858 5857 5856 5856 5855 5853 5852 5850 5847 5845 5842 5839 5836 5833 5830 5826 5822 5819 5815 5812 5808 5805 5802
5877 5877 5874 5873 5872 5871 5871 5871 5872 5871 5870 5868 5865 5864 5863 5861 5859 5858 5857 5857 5857 5856 5856 5855 5854 5852 5851 5849 5847 5844 5841 5838 5835 5831 5828 5824 5820 5816 5813 5809 5805 5802 5798 5794
5875 5874 5872 5870 5869 5869 5869 5868 5868 5868 5867 5867 5865 5863 5862 5860 5859 5858 5857 5856 5856 5855 5854 5853 5851 5850 5848 5846 5843 5840 5837 5834 5830 5826 5822 5819 5815 5811 5807 5803 5799 5795 5791 5787
5871 5871 5869 5868 5867 5867 5867 5867 5866 5867 5866 5867 5865 5862 5861 5859 5858 5857 5856 5855 5854 5853 5852 5850 5849 5847 5845 5842 5839 5836 5833 5829 5826 5822 5818 5814 5810 5806 5802 5797 5793 5788 5784 5780
5868 5868 5868 5866 5865 5866 5865 5865 5865 5865 5865 5866 5865 5865 5860 5858 5857 5856 5854 5853 5852 5851 5849 5848 5846 5844 5841 5839 5836 5832 5829 5825 5821 5817 5813 5809 5804 5800 5796 5791 5786 5781 5776 5771
5865 5865 5865 5864 5863 5863 5863 5863 5863 5864 5863 5862 5863 5864 5858 5856 5855 5854 5853 5851 5850 5848 5847 5845 5843 5840 5838 5835 5832 5828 5824 5820 5816 5812 5808 5803 5799 5794 5789 5784 5779 5774 5768 5763
5862 5862 5863 5863 5863 5862 5860 5860 5860 5860 5860 5860 5861 5862 5856 5854 5853 5852 5850 5849 5847 5846 5844 5842 5840 5837 5834 5831 5827 5823 5819 5815 5811 5807 5802 5797 5792 5787 5782 5776 5771 5765 5760 5754
5858 5859 5860 5862 5860 5859 5858 5857 5857 5857 5858 5858 5858 5857 5854 5852 5851 5849 5848 5846 5845 5843 5841 5839 5836 5833 5830 5826 5822 5818 5814 5810 5806 5801 5797 5791 5786 5781 5775 5769 5763 5757 5751 5745
5855 5855 5855 5855 5855 5855 5855 5854 5854 5854 5854 5855 5854 5853 5851 5849 5848 5847 5845 5843 5841 5839 5837 5835 5832 5829 5826 5822 5818 5814 5809 5805 5800 5796 5791 5785 5780 5774 5767 5761 5755 5748 5742 5735
5851 5851 5851 5851 5851 5851 5851 5851 5850 5850 5850 5850 5850 5849 5847 5846 5845 5843 5842 5840 5838 5836 5833 5831 5828 5824 5821 5817 5813 5808 5804 5800 5795 5790 5785 5779 5773 5766 5760 5753 5746 5739 5732 5726
5847 5847 5847 5848 5848 5848 5848 5847 5847 5847 5846 5846 5846 5846 5843 5842 5841 5839 5838 5836 5834 5832 5829 5826 5823 5820 5816 5812 5807 5803 5799 5794 5789 5784 5778 5772 5765 5758 5751 5744 5737 5730 5723 5716
5843 5843 5843 5844 5845 5845 5847 5843 5843 5843 5843 5842 5842 5841 5839 5838 5837 5835 5833 5832 5830 5827 5825 5821 5818 5815 5811 5806 5802 5798 5793 5788 5783 5777 5771 5765 5758 5751 5743 5736 5729 5721 5714 5706
5839 5839 5840 5841 5841 5841 5841 5840 5840 5840 5839 5838 5837 5837 5835 5834 5832 5831 5829 5827 5825 5822 5820 5816 5813 5809 5805 5801 5797 5792 5787 5782 5777 5771 5764 5757 5750 5743 5735 5727 5720 5712 5704 5697
5834 5835 5836 5836 5837 5838 5839 5836 5836 5837 5836 5834 5833 5832 5831 5829 5828 5827 5824 5822 5820 5817 5814 5811 5807 5803 5799 5795 5791 5786 5781 5776 5770 5764 5757 5750 5743 5735 5727 5719 5711 5703 5695 5688
5830 5831 5831 5832 5833 5834 5833 5832 5833 5834 5833 5830 5828 5827 5826 5824 5823 5821 5818 5816 5814 5811 5808 5805 5801 5797 5793 5789 5784 5780 5775 5769 5763 5757 5750 5742 5735 5727 5719 5711 5702 5694 5687 5679
5825 5826 5827 5828 5829 5831 5827 5828 5828 5827 5825 5824 5823 5822 5820 5819 5817 5815 5812 5810 5807 5805 5801 5798 5795 5791 5787 5782 5778 5773 5768 5762 5756 5749 5742 5734 5726 5718 5710 5702 5694 5686 5678 5671
5820 5821 5821 5823 5824 5823 5822 5822 5821 5820 5819 5818 5816 5815 5814 5812 5810 5808 5806 5804 5801 5798 5795 5791 5788 5784 5780 5775 5771 5766 5760 5754 5747 5741 5733 5726 5718 5709 5702 5693 5686 5678 5670 5662
5813 5814 5815 5816 5816 5816 5816 5815 5814 5814 5813 5812 5810 5809 5807 5806 5804 5802 5799 5797 5794 5791 5788 5784 5780 5776 5772 5768 5763 5758 5752 5746 5739 5732 5725 5717 5709 5701 5693 5685 5677 5669 5662 5655
5806 5807 5808 5809 5809 5809 5809 5808 5808 5807 5806 5805 5803 5802 5800 5799 5797 5794 5792 5789 5787 5784 5780 5777 5772 5768 5764 5760 5755 5750 5744 5737 5730 5723 5716 5708 5700 5692 5684 5676 5669 5662 5654 5647
5799 5800 5801 5801 5801 5802 5802 5801 5800 5799 5798 5797 5796 5795 5793 5791 5789 5787 5784 5781 5779 5776 5772 5768 5764 5760 5755 5751 5746 5741 5735 5728 5721 5714 5707 5699 5691 5684 5676 5668 5661 5654 5647 5640